Flag for Uzbekistan Weather past 2 weeks in Tashkent, Uzbekistan

Now
57 °F

Clear.


Feels Like: 55 °F
Forecast: 49 / 69 °F
Wind: 8 mph from Southeast

Location: Tashkent

Current Time: Apr 26, 2015 at 5:31:46 PM

Latest Report: Apr 26, 2015 at 4:30 PM


Visibility: 4 mi

Pressure: 30.15 "Hg

Humidity: 63%

Dew point: 45 °F

Location of TashkentLocation

Historic Weather in Tashkent — Graph

°F

Tashkent temperature yesterday

Maximum temperature yesterday: 95 °F (at 2:00 PM)
Minimum temperature yesterday: 64 °F (at 1:30 AM)
Average temperature yesterday: 81 °F

Past Weeks' High & Low Weather Summary

 TemperatureHumidityPressure
High95 °F (Apr 25, 2:00 PM)100% (Apr 18, 6:30 AM)30.27 "Hg (Apr 18, 6:30 AM)
Low48 °F (Apr 16, 4:00 AM)10% (Apr 22, 2:00 PM)29.59 "Hg (Apr 26, 12:30 AM)
Average68 °F44%29.96 "Hg
* Reported Apr 11 4:00 PM — Apr 26 4:00 PM, Tashkent, Weather by CustomWeather, © 2015

Note: Actual official high and low records may vary slightly from our data, if they occured in-between our weather recording intervals... More about our weather records

Advertising

Tashkent weather history for previous 24 hours

 ConditionsComfort  
Time TempWeatherWind HumidityBarometerVisibility
4:00 PM
Sun, Apr 26
57 °FMostly cloudy.7 mph63%30.15 "HgN/A
3:30 PM55 °FMostly cloudy.8 mph67%30.15 "HgN/A
3:00 PM55 °FMostly cloudy.7 mph77%30.12 "HgN/A
2:30 PM54 °FMostly cloudy.12 mph77%30.12 "Hg4 mi
2:00 PM52 °FMostly cloudy.10 mph82%30.12 "Hg4 mi
1:30 PM52 °FOvercast.9 mph88%30.12 "Hg4 mi
1:00 PM50 °FOvercast.6 mph94%30.12 "Hg4 mi
12:30 PM50 °FSprinkles. Fog.5 mph88%30.09 "Hg2 mi
12:00 PM50 °FSprinkles. Fog.3 mph88%30.09 "Hg2 mi
11:30 AM48 °FSprinkles. Fog.8 mph94%30.07 "Hg2 mi
11:00 AM48 °FSprinkles. Fog.13 mph94%30.07 "Hg2 mi
10:30 AM50 °FRain showers. Fog.12 mph100%30.07 "Hg2 mi
10:00 AM52 °FSprinkles. Fog.15 mph94%30.01 "Hg3 mi
9:30 AM52 °FSprinkles. Fog.9 mph94%30.01 "Hg3 mi
9:00 AM52 °FRain showers. Fog.10 mph100%29.98 "Hg2 mi
8:30 AM54 °FRain showers. Fog.9 mph100%29.95 "Hg2 mi
8:00 AM54 °FRain showers. Fog.9 mph100%29.95 "Hg2 mi
7:30 AM55 °FRain showers. Fog.7 mph94%29.95 "Hg2 mi
7:00 AM55 °FRain showers. Fog.10 mph100%29.92 "Hg2 mi
6:30 AM57 °FRain showers. Fog.16 mph100%29.89 "Hg2 mi
6:00 AM59 °FFog.25 mph88%29.86 "Hg2 mi
5:30 AM59 °FSprinkles. Fog.23 mph94%29.83 "Hg2 mi
5:00 AM61 °FSprinkles. Fog.30 mph88%29.83 "Hg2 mi
4:30 AM66 °FSprinkles. Fog.22 mph68%29.83 "Hg2 mi
4:00 AM64 °FSprinkles. Fog.14 mph73%29.74 "Hg2 mi
3:30 AM68 °FMostly cloudy.20 mph56%29.74 "Hg2 mi
3:00 AM68 °FOvercast.18 mph53%29.68 "Hg2 mi
2:00 AM72 °FSprinkles. Mostly cloudy.32 mph47%29.77 "Hg2 mi
1:30 AM75 °FPartly cloudy.28 mph36%29.68 "Hg2 mi
1:00 AM79 °FPassing clouds.5 mph23%29.62 "HgN/A
12:30 AM77 °FClear.7 mph26%29.59 "Hg10 mi
12:00 AM77 °FPassing clouds.6 mph28%29.62 "HgN/A
11:30 PM
Sat, Apr 25
81 °FPassing clouds.7 mph24%29.62 "HgN/A
11:00 PM84 °FMostly cloudy.9 mph19%29.65 "HgN/A
10:30 PM86 °FMostly cloudy.13 mph15%29.65 "HgN/A
10:00 PM84 °FSprinkles. Mostly cloudy.10 mph16%29.62 "HgN/A
9:30 PM81 °FMostly cloudy.5 mph24%29.62 "HgN/A
9:00 PM86 °FMostly cloudy.8 mph18%29.62 "HgN/A
8:30 PM90 °FMostly cloudy.8 mph12%29.62 "HgN/A
8:00 PM88 °FMostly cloudy.7 mph15%29.65 "HgN/A
7:30 PM86 °FMostly cloudy.5 mph18%29.65 "HgN/A
7:00 PM88 °FMore clouds than sun.5 mph17%29.62 "Hg4 mi
6:30 PM88 °FOvercast.5 mph19%29.62 "Hg4 mi
6:00 PM90 °FSunny.5 mph15%29.62 "Hg10 mi
5:30 PM90 °FSunny.6 mph18%29.62 "Hg10 mi
5:00 PM91 °FPassing clouds.6 mph17%29.65 "HgN/A
Weather by CustomWeather, © 2015

See weather overviewHow to use our weather pages